Wind_Speed
10 11 11 12 12 13 14 15 15 16 15 15 14 14 13 13 13 12 11 11 11 11 10 10 10 10 9 10 11 12 13 13 14 14 15 15 16 17 18 18 19 19 20
12 12 13 12 13 14 15 16 15 16 16 16 16 15 14 14 13 13 12 12 12 11 11 11 11 11 11 12 12 13 14 15 15 16 16 17 17 18 19 19 20 20 21
12 13 13 13 14 15 16 16 16 16 16 17 16 15 14 14 13 13 13 13 13 13 13 12 12 12 12 13 14 15 15 16 16 17 17 18 19 19 20 21 21 22 22
13 13 14 14 15 16 16 16 16 16 17 17 16 15 14 14 13 13 13 13 13 14 14 13 13 13 13 14 15 16 16 17 17 18 19 19 20 21 21 22 22 23 23
14 15 15 15 16 16 16 16 16 16 17 16 16 16 15 14 14 14 14 14 14 14 14 14 14 14 14 14 15 16 17 17 18 19 20 21 21 21 22 22 23 24 25
15 16 16 16 16 16 15 16 16 16 17 17 17 16 15 14 14 14 14 14 14 14 14 15 15 15 16 17 17 17 18 19 20 20 21 21 22 23 23 24 25 25 26
18 17 17 16 16 16 16 16 17 17 17 17 18 17 16 15 15 15 15 15 16 15 15 15 16 17 17 18 19 19 19 20 21 22 22 23 23 24 25 26 27 27 27
18 18 17 17 17 17 16 17 17 17 17 18 18 18 17 17 17 16 16 16 16 15 16 17 18 19 19 20 20 20 21 21 22 23 23 24 24 25 26 27 28 28 28
18 18 18 17 17 17 18 18 19 19 18 18 18 18 18 18 18 17 17 17 17 17 17 19 20 20 21 21 22 23 23 24 25 25 25 25 25 26 26 27 28 28 27
19 19 19 18 18 19 19 19 19 19 19 19 20 19 19 18 18 18 18 18 18 19 19 19 20 21 22 22 23 24 25 25 26 27 27 26 26 27 27 27 28 28 28
20 19 19 19 20 20 20 20 21 21 21 21 21 21 20 19 19 20 20 20 20 20 20 21 21 22 23 23 24 25 26 26 27 27 27 27 27 28 28 28 29 29 29
20 19 19 19 19 20 21 21 22 22 22 22 22 21 21 21 21 21 21 22 22 22 22 23 23 24 24 24 25 25 26 27 27 26 26 27 28 28 29 29 30 30 30
21 21 20 19 20 20 21 21 21 22 22 22 22 21 21 21 22 21 22 23 24 24 24 25 25 25 25 25 25 26 26 27 27 27 27 27 28 28 29 30 30 30 31
21 21 20 20 20 21 21 22 22 22 22 22 22 22 21 21 23 23 23 24 24 25 25 26 26 26 26 26 26 27 27 27 27 27 28 28 29 30 30 31 31 31 31
21 20 21 21 22 21 22 23 23 22 22 22 22 22 22 23 24 24 24 25 25 25 25 26 26 27 27 27 27 28 28 28 28 28 29 30 30 30 31 31 31 31 31
21 21 21 21 22 23 24 24 24 23 23 23 23 22 23 24 24 25 25 25 24 25 25 26 26 26 26 27 27 28 28 28 29 29 30 30 31 31 31 31 32 32 32
23 23 23 23 24 24 25 24 24 23 24 24 23 24 24 25 25 25 25 25 25 25 25 25 25 25 26 27 28 28 29 29 30 30 31 31 31 31 31 32 33 33 34
25 25 25 24 24 25 25 25 25 25 24 24 25 25 25 25 25 25 25 25 25 24 24 24 25 26 27 28 28 29 29 30 30 30 31 31 31 32 32 33 33 33 34
26 26 26 26 26 26 26 26 26 26 25 26 25 25 25 25 25 25 25 25 25 24 25 25 26 27 28 29 29 29 29 30 30 30 31 32 32 33 33 33 33 33 33
26 27 27 27 27 27 27 27 26 25 25 25 25 25 25 25 25 25 25 24 25 25 26 27 27 28 29 29 29 29 30 30 30 31 32 32 33 33 33 33 34 33 33
27 28 28 28 28 28 27 27 26 26 26 25 24 25 25 25 25 24 24 25 25 26 27 28 28 29 29 30 30 31 31 31 31 31 31 32 33 33 33 33 33 33 33
28 28 29 29 29 28 27 27 26 26 25 25 25 25 26 25 25 25 25 25 26 26 27 28 29 29 30 31 31 31 31 31 31 31 31 32 32 32 33 33 33 32 33
28 27 27 27 27 27 26 26 26 26 25 25 26 26 26 26 26 27 26 26 27 27 28 28 29 30 30 31 31 31 31 31 31 31 31 31 31 32 32 32 32 32 32
26 26 26 26 26 25 25 25 26 26 26 26 27 27 27 28 27 27 27 27 27 28 28 29 30 30 30 30 30 30 30 31 31 31 31 32 32 32 32 32 32 33 33
27 26 26 25 25 25 26 26 26 26 26 26 27 27 27 27 27 27 27 28 28 29 28 28 29 29 29 29 29 29 30 31 31 31 32 32 33 32 32 32 32 33 33
26 25 25 25 25 26 26 26 26 26 26 26 27 27 27 27 27 27 28 29 29 29 28 28 28 29 29 29 29 30 30 31 31 31 32 32 32 32 32 32 32 32 32
Wind_Direction
309 311 318 323 325 325 325 325 326 327 326 322 319 315 311 308 304 298 295 293 294 290 282 282 281 282 284 287 287 285 285 287 290 293 292 290 290 292 294 293 291 290 290
308 308 312 317 320 323 323 324 325 326 324 321 317 313 308 306 300 293 292 292 291 290 288 285 282 282 285 288 287 286 287 288 290 291 292 293 292 293 294 293 293 291 291
306 307 312 314 316 319 319 321 322 323 323 322 321 315 311 309 303 293 290 291 290 291 291 287 284 285 285 287 287 287 288 289 290 292 293 294 295 297 295 294 293 292 291
304 305 306 311 313 313 314 317 319 318 319 320 319 316 312 309 306 298 292 291 290 291 291 289 288 288 286 286 288 289 290 290 291 293 294 294 296 296 295 293 293 293 294
301 302 305 308 309 308 311 314 316 315 315 316 317 314 311 308 309 306 299 293 290 291 291 290 291 290 289 289 291 291 291 292 292 293 294 295 296 295 295 295 295 295 296
301 302 302 304 309 309 310 314 315 313 313 314 313 311 309 306 304 304 299 293 291 291 291 291 292 289 288 289 289 291 292 292 293 294 295 296 297 295 295 295 296 296 296
297 299 300 302 305 307 308 310 312 312 311 309 308 310 307 305 302 300 297 295 293 292 292 292 292 292 289 290 290 294 297 297 294 294 296 296 296 297 296 295 295 295 296
294 295 296 297 299 301 303 306 308 309 309 309 307 306 305 303 301 299 297 295 293 290 289 290 290 291 293 293 293 294 296 298 297 295 295 295 296 298 298 296 295 295 296
291 291 293 293 295 296 299 301 302 304 305 306 305 305 304 303 302 300 297 295 292 292 290 289 290 291 293 295 296 295 295 297 298 297 296 295 296 298 299 299 298 297 297
288 289 289 289 291 293 296 299 300 301 303 305 304 303 302 302 301 300 298 295 294 294 292 293 292 292 294 295 296 296 297 297 297 298 295 295 296 298 300 300 299 298 298
285 287 287 288 290 292 294 297 298 299 301 302 303 303 302 300 298 297 298 297 294 295 294 295 296 295 295 294 295 296 298 298 297 296 296 296 296 298 299 299 298 297 297
283 285 286 287 289 291 294 296 297 297 299 300 301 300 298 297 297 295 296 296 294 295 294 294 295 296 296 296 297 297 297 298 298 297 296 296 297 298 300 299 298 297 297
283 285 286 286 287 290 293 295 297 298 299 300 300 299 297 296 296 293 292 294 295 295 294 292 292 293 295 296 297 297 297 298 298 298 298 299 300 300 300 301 300 300 300
285 284 284 285 287 290 293 294 295 296 297 299 296 297 296 295 296 295 293 294 294 294 294 293 292 291 292 295 296 298 298 298 298 298 298 300 301 301 300 300 301 301 301
283 284 284 285 287 288 292 295 294 295 296 297 296 297 296 296 297 296 296 295 296 296 295 294 293 291 293 295 296 297 298 298 298 298 298 299 300 300 301 301 301 301 301
282 284 285 286 288 289 293 295 295 294 295 296 297 299 299 299 299 297 296 298 299 298 296 296 295 295 295 296 297 298 299 300 300 298 298 298 299 300 301 301 301 302 302
281 283 284 286 289 291 293 294 295 295 295 297 298 298 298 298 297 297 296 297 298 298 297 298 298 298 298 299 299 299 300 301 301 299 298 298 298 300 301 302 302 302 302
281 283 283 285 287 289 290 292 293 293 295 296 296 297 297 297 298 298 298 297 297 298 299 299 300 299 299 300 300 301 302 302 302 301 299 300 300 301 302 303 304 304 303
283 284 284 284 286 288 288 289 290 291 292 293 295 296 296 298 299 299 298 298 297 299 300 299 299 299 299 300 301 302 302 303 303 302 301 301 301 302 304 305 305 304 304
284 284 284 285 286 287 287 288 289 290 292 293 295 297 297 297 298 299 298 298 298 298 299 299 299 300 300 301 302 303 304 305 305 304 303 302 302 303 304 305 306 305 305
281 283 283 284 284 284 285 285 286 289 289 291 294 296 297 297 297 297 297 297 297 297 298 299 300 301 302 301 302 303 305 306 306 306 306 305 305 305 305 305 306 305 305
279 282 283 283 283 283 283 285 286 287 288 290 292 293 295 296 296 296 297 297 296 297 298 299 300 301 302 302 302 303 304 305 306 306 307 307 307 307 307 306 306 307 308
279 281 283 284 283 282 281 282 284 285 288 289 291 292 294 295 295 295 295 296 296 297 299 300 300 301 303 303 303 304 304 305 306 307 307 308 307 307 307 307 308 309 308
279 281 282 283 283 280 279 280 282 284 287 289 290 292 293 293 294 294 294 295 296 298 299 301 302 303 303 304 305 305 307 307 307 307 307 308 307 307 308 308 309 309 309
279 280 280 282 280 280 280 281 282 283 286 287 289 290 291 293 294 294 294 296 297 298 300 301 302 303 304 305 305 306 307 307 307 307 308 309 308 308 308 309 309 309 309
275 276 278 280 281 281 282 282 283 284 285 287 288 289 290 291 292 293 294 296 296 297 298 300 301 303 304 305 306 306 307 308 309 309 310 310 309 309 309 310 310 310 310
Height
5900 5899 5898 5896 5895 5893 5891 5889 5887 5884 5882 5880 5878 5876 5875 5873 5872 5870 5869 5868 5867 5867 5866 5865 5865 5864 5863 5863 5863 5862 5861 5860 5859 5858 5857 5856 5854 5853 5852 5850 5849 5847 5846
5898 5897 5895 5894 5892 5891 5889 5887 5885 5882 5880 5878 5875 5874 5872 5871 5869 5868 5867 5866 5865 5864 5863 5862 5862 5861 5861 5860 5859 5858 5858 5857 5856 5854 5853 5852 5850 5849 5847 5846 5844 5843 5841
5895 5894 5893 5892 5890 5889 5887 5884 5882 5880 5877 5875 5873 5871 5869 5868 5866 5865 5864 5863 5862 5861 5860 5859 5859 5858 5857 5856 5856 5855 5853 5852 5851 5850 5849 5847 5846 5844 5842 5841 5839 5837 5835
5893 5892 5891 5889 5887 5886 5884 5882 5879 5877 5875 5872 5870 5868 5866 5865 5863 5862 5861 5860 5859 5858 5857 5856 5855 5854 5854 5853 5852 5850 5849 5848 5847 5846 5844 5842 5841 5839 5837 5835 5833 5831 5829
5890 5889 5888 5886 5884 5882 5880 5879 5877 5874 5872 5869 5867 5865 5863 5862 5860 5859 5858 5857 5856 5855 5854 5853 5852 5851 5850 5849 5847 5846 5845 5844 5842 5841 5839 5837 5835 5833 5831 5829 5827 5825 5823
5886 5885 5884 5882 5880 5878 5877 5875 5873 5871 5868 5866 5864 5862 5861 5859 5857 5856 5855 5853 5852 5851 5850 5850 5849 5847 5846 5845 5843 5842 5841 5839 5837 5836 5834 5832 5830 5827 5825 5823 5821 5819 5816
5882 5881 5879 5878 5876 5875 5873 5871 5869 5867 5865 5863 5861 5859 5857 5856 5854 5853 5851 5850 5849 5848 5847 5846 5845 5843 5842 5840 5839 5837 5836 5833 5832 5830 5828 5826 5823 5821 5819 5816 5814 5811 5809
5877 5876 5875 5874 5872 5871 5869 5868 5866 5864 5862 5860 5857 5856 5854 5852 5851 5849 5848 5847 5845 5844 5843 5842 5840 5839 5837 5835 5834 5832 5830 5828 5826 5824 5822 5820 5817 5814 5812 5809 5806 5804 5801
5873 5872 5871 5869 5868 5867 5865 5863 5862 5860 5858 5856 5854 5852 5850 5848 5846 5845 5843 5842 5841 5840 5838 5837 5835 5834 5832 5830 5828 5826 5824 5822 5819 5817 5815 5813 5810 5807 5805 5802 5799 5796 5793
5868 5867 5866 5865 5863 5862 5860 5859 5857 5855 5853 5851 5849 5847 5845 5844 5842 5840 5839 5837 5836 5835 5833 5831 5830 5828 5826 5824 5822 5820 5818 5815 5813 5810 5808 5805 5803 5800 5797 5794 5791 5789 5786
5862 5861 5861 5859 5858 5857 5855 5853 5851 5849 5848 5845 5844 5842 5840 5838 5837 5835 5833 5832 5830 5829 5827 5826 5824 5822 5820 5817 5815 5813 5811 5808 5806 5803 5800 5798 5795 5793 5790 5787 5784 5781 5778
5856 5856 5855 5854 5853 5851 5850 5848 5846 5844 5842 5840 5838 5836 5834 5833 5831 5829 5828 5826 5825 5823 5821 5819 5817 5815 5813 5811 5808 5806 5803 5801 5798 5796 5793 5790 5788 5785 5782 5779 5775 5772 5769
5850 5850 5849 5848 5847 5846 5844 5841 5839 5838 5836 5834 5832 5830 5828 5826 5825 5823 5821 5820 5818 5816 5814 5812 5810 5808 5806 5804 5801 5799 5796 5793 5791 5788 5785 5783 5780 5777 5774 5770 5767 5763 5760
5843 5843 5843 5842 5841 5839 5838 5836 5834 5832 5830 5828 5826 5824 5822 5820 5818 5816 5815 5813 5811 5809 5807 5805 5803 5801 5799 5797 5794 5791 5789 5786 5783 5781 5778 5775 5772 5769 5765 5762 5759 5755 5752
5837 5837 5837 5836 5835 5833 5832 5830 5828 5826 5824 5822 5820 5818 5816 5814 5812 5810 5808 5806 5804 5802 5800 5798 5795 5793 5791 5789 5786 5784 5781 5778 5776 5773 5770 5767 5764 5760 5757 5753 5750 5746 5743
5831 5831 5830 5829 5828 5827 5826 5824 5821 5819 5818 5816 5814 5812 5810 5808 5806 5804 5801 5799 5797 5795 5793 5790 5788 5786 5784 5781 5779 5776 5773 5770 5767 5764 5761 5758 5755 5752 5748 5745 5741 5738 5734
5824 5824 5823 5823 5822 5821 5819 5818 5816 5814 5812 5810 5808 5806 5804 5801 5799 5797 5795 5793 5790 5788 5786 5784 5781 5779 5777 5774 5771 5768 5765 5762 5759 5756 5752 5749 5746 5743 5739 5736 5732 5729 5725
5818 5817 5816 5816 5815 5814 5813 5811 5810 5808 5806 5804 5802 5799 5797 5795 5793 5790 5788 5786 5784 5782 5779 5777 5775 5772 5769 5767 5764 5761 5757 5754 5750 5747 5744 5740 5737 5734 5731 5727 5723 5719 5716
5810 5810 5809 5808 5808 5807 5805 5804 5803 5801 5799 5797 5795 5793 5791 5788 5786 5784 5781 5779 5777 5775 5772 5770 5767 5765 5762 5759 5756 5753 5749 5746 5742 5739 5735 5732 5729 5725 5722 5718 5714 5710 5706
5803 5802 5802 5801 5800 5799 5798 5796 5795 5794 5792 5790 5788 5786 5784 5781 5779 5777 5774 5772 5770 5768 5765 5763 5760 5757 5754 5751 5748 5745 5741 5738 5734 5731 5727 5724 5720 5717 5713 5709 5705 5701 5697
5795 5794 5794 5793 5792 5791 5790 5788 5787 5786 5785 5783 5781 5779 5776 5774 5772 5770 5768 5765 5763 5761 5758 5755 5752 5749 5746 5743 5739 5736 5733 5730 5726 5723 5718 5715 5712 5708 5704 5700 5696 5692 5688
5786 5786 5785 5785 5784 5783 5782 5781 5779 5778 5777 5775 5773 5771 5769 5767 5765 5763 5760 5758 5755 5753 5750 5747 5744 5741 5737 5734 5731 5728 5725 5722 5718 5715 5711 5707 5703 5700 5696 5692 5688 5684 5680
5778 5777 5777 5776 5775 5774 5773 5772 5771 5770 5769 5767 5765 5764 5761 5759 5757 5755 5752 5750 5747 5745 5742 5739 5736 5733 5729 5726 5723 5720 5717 5713 5710 5706 5703 5699 5695 5691 5687 5683 5679 5675 5671
5770 5769 5769 5768 5767 5766 5765 5764 5763 5762 5760 5759 5757 5755 5753 5752 5749 5747 5744 5742 5740 5737 5734 5731 5728 5725 5721 5718 5715 5712 5708 5705 5701 5698 5694 5690 5687 5683 5679 5675 5671 5667 5662
5762 5761 5761 5760 5759 5758 5757 5756 5755 5753 5752 5750 5749 5747 5745 5743 5741 5739 5737 5734 5732 5729 5726 5723 5720 5717 5713 5710 5707 5704 5700 5697 5693 5690 5686 5682 5678 5674 5670 5666 5662 5658 5654
5753 5753 5753 5752 5751 5749 5748 5747 5746 5745 5743 5741 5740 5739 5737 5735 5734 5732 5729 5727 5724 5721 5718 5715 5712 5709 5705 5702 5699 5696 5692 5689 5685 5681 5677 5674 5669 5665 5661 5657 5653 5649 5645